Regional Weather Roundup
Issued by NWS

Home | Current Version | Previous Version | Graphics & Text | Print | Product List | Glossary On
Versions: 1 2 3 4 5 6 7 8 9 10 11 12 13 14 15 16 17 18 19 20 21 22 23 24 25 26 27 28 29 30 31 32 33 34 35 36 37 38 39 40 41 42 43 44 45 46 47 48 49 50
000
ASUS43 KIND 301009
RWRIN

WEATHER ROUNDUP FOR INDIANA
NATIONAL WEATHER SERVICE INDIANAPOLIS IN
600 AM EDT SAT MAY 30 2015

NOTE: "FAIR" INDICATES FEW OR NO CLOUDS BELOW 12,000 FEET WITH NO
SIGNIFICANT WEATHER AND/OR OBSTRUCTIONS TO VISIBILITY.

* - STATION DOES NOT REPORT WEATHER SUCH AS PRECIPITATION OR FOG.

+ - STATION NOT QUALITY CONTROLLED BY THE NATIONAL WEATHER SERVICE.
    USE DATA WITH CAUTION...ESPECIALLY DEWPOINT AND RELATIVE
    HUMIDITY OBSERVATIONS.

INZ001>003-010>013-019-020-301100-
NORTHWEST INDIANA

CITY           SKY/WX    TMP DP  RH WIND       PRES   REMARKS
GARY /AIRPORT/ CLOUDY    70  66  88 SW7       29.96R
KNOX *+        CLOUDY    68  68 100 SW6       29.98R
LA PORTE +     CLOUDY    70  68  94 SW8       29.98R
MICHIGAN CITY+ CLOUDY    66  66 100 S3        29.97R
MONTICELLO +   CLOUDY    68  66  94 S6        29.99R
RENSSELAER +   CLOUDY    68  68 100 SW5       29.99R
VALPARAISO     RAIN      68  67  96 SW10      29.99R FOG

$$

LMZ046-743>745-301100-
SOUTHERN LAKE MICHIGAN

STATION/POSITION TIME  TEMP    WIND        PRES    WAVE
                       AIR SEA DIR/SP/G            HT
                 (UTC) (F)     (DEG/KT/KT) (MB)    (FT)
BURNS HARBOR     1000   69     200/ 11/ 17 1014.9R
MICHIGAN CITY    1000   68     180/ 11/ 13   N/A
5NW MICH CITY    1000   61 56  220/  6/  8   N/A     1

$$

INZ004-005-014>016-021>024-301100-
NORTH CENTRAL INDIANA

CITY           SKY/WX    TMP DP  RH WIND       PRES   REMARKS
GOSHEN         MOCLDY    69  65  86 SW8       29.98R
LOGANSPORT +   CLOUDY    68  63  83 S6        30.01R
PERU/GRISSOM   PTCLDY    66  64  94 S6        29.99R
ROCHESTER +    MOCLDY    72  66  83 S5        30.00R
SOUTH BEND     LGT RAIN  69  65  86 SW9       29.97R
WARSAW +       MOCLDY    68  64  88 SW3       29.99S

$$

INZ006>009-017-018-025>027-301100-
NORTHEAST INDIANA

CITY           SKY/WX    TMP DP  RH WIND       PRES   REMARKS
ANGOLA *+      CLOUDY    70  61  73 SW5       29.99R
AUBURN +       PTCLDY    68  63  83 SW5       30.00S
FORT WAYNE     CLOUDY    68  65  90 S8        30.01R
HUNTINGTON +   PTCLDY    67  64  91 CALM      30.00S

$$

INZ028-029-035-036-043>045-051>053-301100-
WEST CENTRAL INDIANA

CITY           SKY/WX    TMP DP  RH WIND       PRES   REMARKS
CRAWFORDSVL +  MOCLDY    64  61  90 SW5       30.02R FOG
GREENCASTLE +  PTCLDY    68  63  83 S3        30.02R
LAFAYETTE      CLOUDY    66  64  93 CALM      29.99R
TERRE HAUTE    PTCLDY    66  65  96 CALM      30.00R

$$

INZ030>032-037>040-046>048-054>057-064-065-301100-
CENTRAL INDIANA

CITY           SKY/WX    TMP DP  RH WIND       PRES   REMARKS
CP ATTERBURY + FOG       63  61  94 CALM      30.04R VSB 1/2
FISHERS *+     CLEAR     66  66 100 S5        30.03R
FRANKFORT +    PTCLDY    66  66 100 CALM      30.03R
GREENWOOD *+   CLEAR     68  64  88 S6        30.03R
INDIANAPOLIS   PTCLDY    68  65  90 S9        30.00R
-EAGLE CREEK   PTCLDY    68  65  90 CALM      30.01R
KOKOMO *+      PTCLDY    66  63  88 S6        30.01R
MARION +       CLEAR     65  63  90 S5        30.02R
MT COMFORT *+  CLEAR     66 N/A N/A S6        30.03R
SHELBYVILLE    CLEAR     69  65  86 S9        30.03R
ZIONSVILLE +   CLEAR     68  64  86 S5        30.03R

$$

INZ033-034-041-042-049-050-058-059-301100-
EAST CENTRAL INDIANA

CITY           SKY/WX    TMP DP  RH WIND       PRES   REMARKS
MUNCIE         CLEAR     69  65  86 S5        30.02R

$$

INZ060-061-067>069-081>083-085>088-301100-
SOUTHWEST INDIANA

CITY           SKY/WX    TMP DP  RH WIND       PRES   REMARKS
EVANSVILLE     CLEAR     70  66  87 SE5       30.01S
HUNTINGBURG *+ CLEAR     68  64  88 S6        30.03S
WASHINGTON +   CLEAR     69  65  88 S7        30.00S

$$

INZ062-063-066-070>080-084-089>092-301100-
SOUTH CENTRAL AND SOUTHEAST INDIANA

CITY           SKY/WX    TMP DP  RH WIND       PRES   REMARKS
BLOOMINGTON    CLEAR     68  66  93 S6        30.02S
MADISON *+     CLEAR     68  64  88 S3        30.08S
NORTH VERNON + CLEAR     68  68 100 S6        30.06R
SEYMOUR +      CLEAR     70  66  88 S8        30.04R

$$



USA.gov is the U.S. government's official web portal to all federal, state and local government web resources and services.